Starlink 3638

operational
NORAD ID: 51786 Int'l Des: 2022-017 Owner: SPXS Country: US Constellation: starlink
LEOCIRCULAR

About Starlink 3638

Description loading...

Live Position

Loading 3D Globe...

Upcoming Passes

Altitude History

Altitude vs Time

uPlot chart will show altitude changes over time

Two-Line Element Set

1 51786U 22017U 25258.71669379 .00000167 00000-0 28610-4 0 9994
2 51786 53.2175 54.6048 0001271 90.9570 269.1568 15.08841439195869
Epoch: Sep 15, 2025 • Age: 18 hours

Current Status

Altitude 540.4 km
Velocity 7.60 km/s
Sub-Earth Point 25.88°N, 85.68°W
Launch Date Feb 25, 2022
Age 3.5 years
Type internet

Technical Details

Classification Payload
Mass 297.00 kg
Dry Mass 275.00 kg
Total Mass 297.00 kg
Length 0.20 m
Diameter 2.80 m
Span 9.00 m
Shape Box + pan
Manufacturer SPXS
Bus Type Starlink
Phase Status In Orbit
Owner/State SPXS/US

Large Constellations

Loading constellations...